Weather History for Crestview, FL

Change the Weather History Date:

Tuesday, May 6, 2014

  Actual Average Record
Temperature  
Mean Temperature 69 °F -  
Max Temperature 84 °F - - ()
Min Temperature 55 °F - - ()
Cooling Degree Days 4    
Growing Degree Days 19 (Base 50)    
Moisture  
Dew Point 57 °F    
Average Humidity 67    
Maximum Humidity 100    
Minimum Humidity 32    
Precipitation  
Precipitation 0.00 in - - ()
Sea Level Pressure  
Sea Level Pressure 30.02 in    
Wind  
Wind Speed 5 mph (South)    
Max Wind Speed 10 mph    
Max Gust Speed 20 mph    
Visibility 9 miles    
Events Fog    
T = Trace of Precipitation, MM = Missing Value Source: NWS Daily Summary

Daily Weather History Graph

Daily Weather History Graph

Search for Another Location

Airport:

Trip Planner

Search our weather history database for the weather conditions in past years. The results will help you decide how hot, cold, wet, or windy it might be!

Date:

Astronomy

May. 06, 2014 Rise Set
Actual Time 5:57 AM CDT 7:27 PM CDT
Civil Twilight 5:32 AM CDT 7:53 PM CDT
Nautical Twilight 5:01 AM CDT 8:24 PM CDT
Astronomical Twilight 4:28 AM CDT 8:57 PM CDT
Moon 12:08 PM CDT (5/6) 12:50 AM CDT (5/6)
Length of Visible Light 14h 21m
Length of Day
13h 29m
Waxing Crescent, 46% of the Moon is Illuminated
May 6
Waxing Crescent
May 6
First Quarter
May 14
Full
May 21
Last Quarter
May 28
New

Hourly Weather History & Observations

Time (CDT) Temp. Heat Index Dew Point Humidity Pressure Visibility Wind Dir Wind Speed Gust Speed Precip Events Conditions
12:58 AM 61.9 °F - 61.7 °F 99% 30.01 in 10.0 mi South 4.6 mph - N/A   Clear
1:58 AM 61.0 °F - 60.6 °F 99% 29.99 in 10.0 mi South 3.5 mph - N/A   Clear
6:48 AM 55.4 °F - 55.4 °F 100% 30.02 in 0.5 mi Calm Calm - N/A Fog Fog
6:53 AM 55.4 °F - 55.4 °F 100% 30.02 in 1.2 mi Calm Calm - N/A   Clear
7:58 AM 66.4 °F - 65.8 °F 98% 30.05 in 10.0 mi Variable 1.2 mph - N/A   Clear
8:55 AM 72.1 °F - 63.7 °F 75% 30.06 in 10.0 mi WNW 4.6 mph - N/A   Clear
9:55 AM 75.6 °F - 60.3 °F 59% 30.05 in 10.0 mi NNW 5.8 mph - N/A   Partly Cloudy
10:55 AM 78.3 °F - 57.6 °F 49% 30.06 in 10.0 mi South 4.6 mph - N/A   Partly Cloudy
11:55 AM 81.7 °F 81.1 °F 54.7 °F 39% 30.05 in 10.0 mi SSW 6.9 mph - N/A   Partly Cloudy
12:55 PM 82.8 °F 82.2 °F 56.7 °F 41% 30.01 in 10.0 mi South 9.2 mph - N/A   Partly Cloudy
1:55 PM 83.5 °F 82.1 °F 53.2 °F 35% 30.01 in 10.0 mi SSE 9.2 mph 19.6 mph N/A   Partly Cloudy
2:55 PM 83.3 °F - 51.3 °F 33% 30.00 in 10.0 mi SSE 9.2 mph - N/A   Clear
3:57 PM 83.1 °F - 50.0 °F 32% 29.98 in 10.0 mi South 6.9 mph - N/A   Clear
4:55 PM 81.9 °F - 49.1 °F 32% 29.99 in 10.0 mi South 9.2 mph - N/A   Clear
5:55 PM 79.5 °F - 53.8 °F 41% 29.98 in 10.0 mi SW 10.4 mph - N/A   Clear
6:55 PM 75.7 °F - 56.3 °F 51% 29.99 in 10.0 mi SSW 9.2 mph - N/A   Clear
7:55 PM 68.7 °F - 57.6 °F 67% 30.00 in 10.0 mi South 6.9 mph - N/A   Clear
8:55 PM 64.4 °F - 58.6 °F 82% 30.01 in 10.0 mi South 6.9 mph - N/A   Clear
9:55 PM 63.7 °F - 59.2 °F 85% 30.02 in 10.0 mi South 6.9 mph - N/A   Clear
10:55 PM 62.1 °F - 60.3 °F 94% 30.03 in 10.0 mi South 5.8 mph - N/A   Clear
11:55 PM 62.6 °F - 61.7 °F 97% 30.03 in 10.0 mi South 4.6 mph - N/A   Clear